Miscellaneous Local Product
Issued by NWS Hastings, NE

Home | Current Version | Previous Version | Text Only | Print | Product List | Glossary Off
Versions: 1 2 3 4 5 6 7 8 9 10 11 12 13 14 15 16 17 18 19 20 21 22 23 24 25 26 27 28 29 30 31 32 33 34 35 36 37 38 39 40 41 42 43 44 45 46 47 48 49 50

000
AXUS43 KGID 030502
MISGRI

GID CWA HOURLY WEATHER ROUNDUP
NATIONAL WEATHER SERVICE HASTINGS NE
1200 AM CDT WED JUN 03 2015

NOTE: "FAIR" INDICATES FEW OR NO CLOUDS BELOW 12,000 FEET WITH NO
SIGNIFICANT WEATHER AND/OR OBSTRUCTIONS TO VISIBILITY.

...SOUTH CENTRAL NEBRASKA...

CITY           SKY/WX    TMP DP  RH WIND       PRES   REMARKS
GRAND ISLAND   MOCLDY    72  65  78 SE14G21   29.84S
HASTINGS       PTCLDY    72  66  81 SE16      29.84R
KEARNEY        MOCLDY    72  64  78 SE12      29.83S
ORD            CLOUDY    73  65  75 SE10      29.82R
YORK           PTCLDY    68  64  88 SE14G23   29.87R
AURORA         PTCLDY    69  66  89 SE16      29.85S
LEXINGTON      CLOUDY    73  66  79 SE10      29.81R
HOLDREGE       PTCLDY    72  65  77 SE14      29.81S
HEBRON         CLEAR     72  65  80 SE13      29.85S

...NEBRASKA PANHANDLE...

CITY           SKY/WX    TMP DP  RH WIND       PRES   REMARKS
CHADRON        PTCLDY    60  55  83 N14G23    29.92R
ALLIANCE       PTCLDY    60  54  80 N8        29.89R
SCOTTSBLUFF    PTCLDY    62  51  67 E3        29.89R
SIDNEY         PTCLDY    64  57  78 NE10      29.87R

...WESTERN AND NORTH CENTRAL NEBRASKA...

CITY           SKY/WX    TMP DP  RH WIND       PRES   REMARKS
VALENTINE      LGT RAIN  65  56  72 NE26G36   29.76F
AINSWORTH      RAIN      63  58  85 NW22      29.88F
ONEILL         CLOUDY    73  66  79 S12       29.83S
BROKEN BOW     CLOUDY    73  65  75 SE7       29.85R
IMPERIAL       CLEAR     70  64  81 SE10      29.79R
NORTH PLATTE   CLOUDY    72  55  55 N28G37    29.86R
MCCOOK         CLEAR     72  65  78 E6        29.77R

...EASTERN NEBRASKA...

CITY           SKY/WX    TMP DP  RH WIND       PRES   REMARKS
NORFOLK        PTCLDY    66  61  84 SE13      29.86S
SO SIOUX CITY  MOCLDY    66  58  75 S12       29.89R
TEKAMAH        PTCLDY    65  58  78 SE15      29.90R
COLUMBUS       CLEAR     66  59  77 SE8       29.88S
ALBION         PTCLDY    68  62  79 SE10G17   29.86S
OMAHA EPPLEY   CLEAR     65  58  78 SE14      29.91S
OFFUTT AFB     CLEAR     63  58  83 E7        29.90S
MILLARD        CLEAR     66  59  79 SE9       29.90S
LINCOLN        CLEAR     68  61  78 SE10      29.88S
NEBRASKA CITY  CLEAR     63  58  83 SE12      29.91F
BEATRICE       CLEAR     69  63  82 SE14G22   29.87F
FALLS CITY     PTCLDY    67  58  72 SE13      29.90F

...NORTHERN KANSAS...

CITY           SKY/WX    TMP DP  RH WIND       PRES   REMARKS
GOODLAND       CLEAR     67  59  75 S10       29.81R
HILL CITY      CLEAR     75  64  68 S14       29.78R
NORTON         CLEAR     73  61  64 SE9       29.78R
PHILLIPSBURG   CLEAR     73  66  78 E8        29.80R
SMITH CENTER   CLEAR     72  64  78 SE15      29.82R
BELOIT           N/A     73  66  78 SE13      29.81R
HAYS           CLEAR     73  61  64 S14G21    29.81S
RUSSELL        CLEAR     75  66  73 S18       29.80R
CONCORDIA      CLEAR     72  67  84 SE16      29.85R
SALINA         CLEAR     75  67  76 SE13      29.84S
TOPEKA         CLEAR     69  62  78 SE12      29.93F



USA.gov is the U.S. government's official web portal to all federal, state and local government web resources and services.